| time (UTC) | temp F | wind direction | speed MPH | gust MPH | rain 1hr in | rain 24hr in | rain mn in | humidity % | barometer mb |
| 20260903184313 | 62 | 0 | 0.0 | 0.0 | 0.00 | 0.00 | 0.00 | 81 | 1007.4 |
| 20260903183536 | 62 | 0 | 0.0 | 0.0 | 0.00 | 0.00 | 0.00 | 81 | 1007.2 |
| 20260903182913 | 62 | 0 | 0.0 | 0.0 | 0.00 | 0.00 | 0.00 | 80 | 1007.2 |
| 20260903182132 | 62 | 0 | 0.0 | 0.0 | 0.00 | 0.00 | 0.00 | 79 | 1007.3 |
| 20260903181432 | 63 | 0 | 0.0 | 0.0 | 0.00 | 0.00 | 0.00 | 78 | 1007.3 |
| 20260903180801 | 64 | 0 | 0.0 | 0.0 | 0.00 | 0.00 | 0.00 | 78 | 1007.4 |
| 20260903180028 | 64 | 0 | 0.0 | 0.0 | 0.00 | 0.00 | 0.00 | 78 | 1007.3 |
| 20260903175329 | 64 | 0 | 0.0 | 0.0 | 0.00 | 0.00 | 0.00 | 78 | 1007.3 |
| 20260903174629 | 64 | 0 | 0.0 | 0.0 | 0.00 | 0.00 | 0.00 | 77 | 1007.5 |
| 20260903173949 | 65 | 0 | 0.0 | 0.0 | 0.00 | 0.00 | 0.00 | 76 | 1007.4 |
| 20260903173230 | 65 | 0 | 0.0 | 2.0 | 0.00 | 0.00 | 0.00 | 76 | 1007.3 |
| 20260903172542 | 65 | 0 | 0.0 | 2.0 | 0.00 | 0.00 | 0.00 | 75 | 1007.4 |
| 20260903171846 | 65 | 0 | 0.0 | 4.0 | 0.00 | 0.00 | 0.00 | 74 | 1007.5 |
| 20260903171215 | 65 | 0 | 4.0 | 12.0 | 0.00 | 0.00 | 0.00 | 74 | 1007.6 |
| 20260903170511 | 66 | 68 | 2.0 | 12.0 | 0.00 | 0.00 | 0.00 | 72 | 1007.4 |
| 20260903165730 | 67 | 68 | 0.0 | 0.0 | 0.00 | 0.00 | 0.00 | 71 | 1007.2 |
| 20260903165043 | 68 | 68 | 0.0 | 0.0 | 0.00 | 0.00 | 0.00 | 69 | 1007.4 |
| 20260903162239 | 70 | 68 | 0.0 | 0.0 | 0.00 | 0.00 | 0.00 | 60 | 1007.1 |
| 20260903161535 | 71 | 68 | 0.0 | 0.0 | 0.00 | 0.00 | 0.00 | 59 | 1007.2 |
| 20260903160900 | 71 | 68 | 0.0 | 0.0 | 0.00 | 0.00 | 0.00 | 59 | 1007.2 |
| 20260903160132 | 72 | 68 | 0.0 | 0.0 | 0.00 | 0.00 | 0.00 | 58 | 1007.5 |
| 20260903155440 | 72 | 68 | 0.0 | 0.0 | 0.00 | 0.00 | 0.00 | 59 | 1007.5 |
| 20260903154036 | 71 | 68 | 0.0 | 1.0 | 0.00 | 0.00 | 0.00 | 59 | 1007.5 |
| 20260903153333 | 71 | 68 | 0.0 | 3.0 | 0.00 | 0.00 | 0.00 | 58 | 1007.6 |
| 20260903152636 | 71 | 68 | 1.0 | 6.0 | 0.00 | 0.00 | 0.00 | 58 | 1007.6 |
| 20260903152018 | 71 | 68 | 3.0 | 9.0 | 0.00 | 0.00 | 0.00 | 57 | 1007.8 |
| 20260903151305 | 72 | 68 | 3.0 | 8.0 | 0.00 | 0.00 | 0.00 | 56 | 1007.9 |
| 20260903150533 | 73 | 45 | 0.0 | 4.0 | 0.00 | 0.00 | 0.00 | 55 | 1007.9 |
| 20260903145845 | 72 | 45 | 2.0 | 5.0 | 0.00 | 0.00 | 0.00 | 55 | 1007.9 |
| 20260903145134 | 72 | 23 | 3.0 | 8.0 | 0.00 | 0.00 | 0.00 | 54 | 1007.8 |
| 20260903144437 | 73 | 45 | 1.0 | 7.0 | 0.00 | 0.00 | 0.00 | 54 | 1007.8 |
| 20260903143753 | 73 | 45 | 2.0 | 5.0 | 0.00 | 0.00 | 0.00 | 53 | 1008.1 |
| 20260903143054 | 73 | 23 | 3.0 | 6.0 | 0.00 | 0.00 | 0.00 | 52 | 1008.2 |
| 20260903142419 | 74 | 23 | 4.0 | 9.0 | 0.00 | 0.00 | 0.00 | 52 | 1008.0 |
| 20260903141634 | 74 | 23 | 3.0 | 8.0 | 0.00 | 0.00 | 0.00 | 52 | 1008.1 |
| 20260903140934 | 74 | 23 | 4.0 | 7.0 | 0.00 | 0.00 | 0.00 | 52 | 1008.2 |
| 20260903140307 | 74 | 23 | 4.0 | 7.0 | 0.00 | 0.00 | 0.00 | 52 | 1008.3 |
| 20260903135535 | 74 | 23 | 2.0 | 7.0 | 0.00 | 0.00 | 0.00 | 51 | 1008.1 |
| 20260903134847 | 75 | 45 | 2.0 | 12.0 | 0.00 | 0.00 | 0.00 | 50 | 1008.1 |
| 20260903134135 | 75 | 45 | 2.0 | 6.0 | 0.00 | 0.00 | 0.00 | 50 | 1008.2 |
| 20260903133435 | 76 | 359 | 0.0 | 0.0 | 0.00 | 0.00 | 0.00 | 48 | 1008.3 |
| 20260903132739 | 76 | 359 | 0.0 | 0.0 | 0.00 | 0.00 | 0.00 | 48 | 1008.5 |
| 20260903132119 | 76 | 45 | 4.0 | 8.0 | 0.00 | 0.00 | 0.00 | 48 | 1008.5 |
| 20260903131336 | 76 | 45 | 3.0 | 11.0 | 0.00 | 0.00 | 0.00 | 48 | 1008.4 |
| 20260903130721 | 77 | 45 | 3.0 | 7.0 | 0.00 | 0.00 | 0.00 | 47 | 1008.5 |
| 20260903125236 | 78 | 359 | 0.0 | 0.0 | 0.00 | 0.00 | 0.00 | 47 | 1008.7 |
| 20260903124622 | 77 | 45 | 4.0 | 11.0 | 0.00 | 0.00 | 0.00 | 47 | 1008.7 |
| 20260903123901 | 77 | 23 | 6.0 | 13.0 | 0.00 | 0.00 | 0.00 | 46 | 1008.8 |
| 20260903123137 | 78 | 45 | 7.0 | 12.0 | 0.00 | 0.00 | 0.00 | 48 | 1008.8 |
| 20260903122522 | 78 | 359 | 0.0 | 0.0 | 0.00 | 0.00 | 0.00 | 47 | 1008.9 |
| 20260903121822 | 76 | 45 | 4.0 | 9.0 | 0.00 | 0.00 | 0.00 | 48 | 1008.9 |
| 20260903121123 | 76 | 23 | 4.0 | 8.0 | 0.00 | 0.00 | 0.00 | 46 | 1009.0 |
| 20260903120338 | 78 | 23 | 6.0 | 12.0 | 0.00 | 0.00 | 0.00 | 46 | 1008.9 |
| 20260903115706 | 77 | 90 | 2.0 | 11.0 | 0.00 | 0.00 | 0.00 | 47 | 1008.8 |
| 20260903115010 | 76 | 113 | 1.0 | 9.0 | 0.00 | 0.00 | 0.00 | 48 | 1009.0 |
| 20260903114322 | 76 | 23 | 4.0 | 9.0 | 0.00 | 0.00 | 0.00 | 48 | 1009.2 |
| 20260903113602 | 75 | 23 | 4.0 | 8.0 | 0.00 | 0.00 | 0.00 | 49 | 1009.2 |
| 20260903112924 | 76 | 23 | 4.0 | 10.0 | 0.00 | 0.00 | 0.00 | 48 | 1009.4 |
| 20260903111439 | 77 | 68 | 2.0 | 6.0 | 0.00 | 0.00 | 0.00 | 47 | 1009.6 |
| 20260903110739 | 77 | 45 | 4.0 | 13.0 | 0.00 | 0.00 | 0.00 | 46 | 1009.7 |
| 20260903105424 | 76 | 23 | 6.0 | 13.0 | 0.00 | 0.00 | 0.00 | 48 | 1009.7 |
| 20260903104655 | 75 | 23 | 4.0 | 9.0 | 0.00 | 0.00 | 0.00 | 48 | 1009.9 |
| 20260903103940 | 77 | 23 | 8.0 | 13.0 | 0.00 | 0.00 | 0.00 | 46 | 1010.0 |
| 20260903103240 | 78 | 23 | 6.0 | 12.0 | 0.00 | 0.00 | 0.00 | 46 | 1009.9 |
| 20260903102600 | 78 | 23 | 5.0 | 12.0 | 0.00 | 0.00 | 0.00 | 46 | 1009.8 |
| 20260903101840 | 79 | 23 | 6.0 | 10.0 | 0.00 | 0.00 | 0.00 | 45 | 1010.0 |
| 20260903101200 | 78 | 23 | 6.0 | 18.0 | 0.00 | 0.00 | 0.00 | 45 | 1010.1 |
| 20260903100449 | 77 | 23 | 5.0 | 14.0 | 0.00 | 0.00 | 0.00 | 47 | 1010.1 |
| 20260903095741 | 77 | 23 | 4.0 | 9.0 | 0.00 | 0.00 | 0.00 | 48 | 1010.1 |
| 20260903095049 | 77 | 23 | 5.0 | 13.0 | 0.00 | 0.00 | 0.00 | 47 | 1010.3 |
| 20260903094341 | 78 | 23 | 5.0 | 12.0 | 0.00 | 0.00 | 0.00 | 46 | 1010.3 |
| 20260903093645 | 79 | 45 | 4.0 | 11.0 | 0.00 | 0.00 | 0.00 | 45 | 1010.3 |
| 20260903093026 | 77 | 0 | 4.0 | 8.0 | 0.00 | 0.00 | 0.00 | 46 | 1010.4 |
| 20260903092246 | 78 | 23 | 3.0 | 9.0 | 0.00 | 0.00 | 0.00 | 46 | 1010.4 |
| 20260903091542 | 78 | 45 | 2.0 | 11.0 | 0.00 | 0.00 | 0.00 | 48 | 1010.4 |
| 20260903090842 | 78 | 45 | 4.0 | 11.0 | 0.00 | 0.00 | 0.00 | 46 | 1010.5 |
| 20260903090158 | 78 | 68 | 2.0 | 6.0 | 0.00 | 0.00 | 0.00 | 48 | 1010.7 |
| 20260903085511 | 77 | 68 | 2.0 | 9.0 | 0.00 | 0.00 | 0.00 | 50 | 1010.7 |
| 20260903084750 | 77 | 90 | 3.0 | 9.0 | 0.00 | 0.00 | 0.00 | 50 | 1010.7 |
| 20260903084043 | 77 | 359 | 0.0 | 0.0 | 0.00 | 0.00 | 0.00 | 53 | 1010.7 |
| 20260903083347 | 76 | 359 | 0.0 | 0.0 | 0.00 | 0.00 | 0.00 | 53 | 1010.7 |
| 20260903082643 | 76 | 359 | 0.0 | 0.0 | 0.00 | 0.00 | 0.00 | 55 | 1010.8 |
| 20260903082011 | 75 | 45 | 2.0 | 8.0 | 0.00 | 0.00 | 0.00 | 58 | 1010.8 |
| 20260903081243 | 74 | 45 | 3.0 | 9.0 | 0.00 | 0.00 | 0.00 | 60 | 1010.8 |
| 20260903080544 | 73 | 45 | 3.0 | 7.0 | 0.00 | 0.00 | 0.00 | 61 | 1010.8 |
| 20260903075844 | 73 | 23 | 3.0 | 9.0 | 0.00 | 0.00 | 0.00 | 63 | 1010.6 |
| 20260903075152 | 72 | 23 | 3.0 | 9.0 | 0.00 | 0.00 | 0.00 | 67 | 1010.6 |
| 20260903074520 | 71 | 23 | 3.0 | 7.0 | 0.00 | 0.00 | 0.00 | 69 | 1010.7 |
| 20260903073828 | 69 | 45 | 1.0 | 5.0 | 0.00 | 0.00 | 0.00 | 74 | 1010.5 |
| 20260903073053 | 66 | 23 | 1.0 | 4.0 | 0.00 | 0.00 | 0.00 | 79 | 1010.4 |
| 20260903071729 | 63 | 45 | 1.0 | 4.0 | 0.00 | 0.00 | 0.00 | 80 | 1010.4 |
| 20260903070957 | 63 | 23 | 1.0 | 4.0 | 0.00 | 0.00 | 0.00 | 81 | 1010.4 |
| 20260903070330 | 62 | 23 | 1.0 | 4.0 | 0.00 | 0.00 | 0.00 | 82 | 1010.5 |
| 20260903064901 | 62 | 23 | 0.0 | 3.0 | 0.00 | 0.00 | 0.00 | 83 | 1010.6 |
| 20260903064221 | 61 | 23 | 1.0 | 4.0 | 0.00 | 0.00 | 0.00 | 84 | 1010.6 |
| 20260903062830 | 60 | 68 | 0.0 | 0.0 | 0.00 | 0.00 | 0.00 | 86 | 1010.4 |
| 20260903062106 | 60 | 68 | 0.0 | 2.0 | 0.00 | 0.00 | 0.00 | 86 | 1010.5 |
| 20260903061410 | 60 | 68 | 0.0 | 2.0 | 0.00 | 0.00 | 0.00 | 87 | 1010.6 |
| 20260903060650 | 59 | 68 | 0.0 | 3.0 | 0.00 | 0.00 | 0.00 | 87 | 1010.7 |
| 20260903055954 | 59 | 68 | 0.0 | 2.0 | 0.00 | 0.00 | 0.00 | 87 | 1010.5 |
| 20260903055319 | 59 | 68 | 0.0 | 2.0 | 0.00 | 0.00 | 0.00 | 87 | 1010.5 |
| 20260903054559 | 59 | 68 | 0.0 | 0.0 | 0.00 | 0.00 | 0.00 | 87 | 1010.6 |
| 20260903053847 | 59 | 68 | 0.0 | 0.0 | 0.00 | 0.00 | 0.00 | 88 | 1010.8 |
| 20260903053232 | 60 | 68 | 0.0 | 0.0 | 0.00 | 0.00 | 0.00 | 91 | 1010.8 |
| 20260903052523 | 59 | 359 | 0.0 | 0.0 | 0.00 | 0.00 | 0.00 | 92 | 1010.7 |
| 20260903051807 | 58 | 68 | 0.0 | 0.0 | 0.00 | 0.00 | 0.00 | 92 | 1010.6 |
| 20260903051056 | 58 | 68 | 0.0 | 0.0 | 0.00 | 0.00 | 0.00 | 93 | 1010.6 |
| 20260903050400 | 58 | 359 | 0.0 | 0.0 | 0.00 | 0.00 | 0.00 | 93 | 1010.6 |
| 20260903045648 | 58 | 68 | 0.0 | 0.0 | 0.00 | 0.00 | 0.00 | 93 | 1010.7 |
| 20260903044952 | 56 | 68 | 0.0 | 0.0 | 0.00 | 0.00 | 0.00 | 93 | 1010.7 |
| 20260903044249 | 54 | 68 | 0.0 | 0.0 | 0.00 | 0.00 | 0.00 | 92 | 1010.5 |
| 20260903043549 | 53 | 68 | 0.0 | 0.0 | 0.00 | 0.00 | 0.00 | 92 | 1010.4 |
| 20260903042901 | 52 | 68 | 0.0 | 0.0 | 0.00 | 0.00 | 0.00 | 91 | 1010.5 |
| 20260903042153 | 52 | 68 | 0.0 | 0.0 | 0.00 | 0.00 | 0.00 | 90 | 1010.6 |
| 20260903040749 | 52 | 68 | 0.0 | 0.0 | 0.00 | 0.00 | 0.00 | 90 | 1010.6 |
| 20260903040054 | 53 | 68 | 0.0 | 0.0 | 0.00 | 0.00 | 0.00 | 90 | 1010.5 |
| 20260903035350 | 53 | 68 | 0.0 | 0.0 | 0.00 | 0.00 | 0.00 | 90 | 1010.6 |
| 20260903034650 | 53 | 68 | 0.0 | 0.0 | 0.00 | 0.00 | 0.00 | 90 | 1010.4 |
| 20260903033954 | 53 | 68 | 0.0 | 0.0 | 0.00 | 0.00 | 0.00 | 90 | 1010.4 |
| 20260903033250 | 54 | 68 | 0.0 | 0.0 | 0.00 | 0.00 | 0.00 | 90 | 1010.6 |
| 20260903032551 | 54 | 68 | 0.0 | 0.0 | 0.00 | 0.00 | 0.00 | 90 | 1010.6 |
| 20260903031854 | 55 | 68 | 0.0 | 0.0 | 0.00 | 0.00 | 0.00 | 90 | 1010.6 |
| 20260903030455 | 55 | 359 | 0.0 | 0.0 | 0.00 | 0.00 | 0.00 | 90 | 1010.6 |
| 20260903025755 | 55 | 359 | 0.0 | 0.0 | 0.00 | 0.00 | 0.00 | 90 | 1010.6 |
| 20260903025055 | 56 | 68 | 0.0 | 0.0 | 0.00 | 0.00 | 0.00 | 90 | 1010.6 |
| 20260903024352 | 56 | 68 | 0.0 | 0.0 | 0.00 | 0.00 | 0.00 | 90 | 1010.7 |
| 20260903023656 | 56 | 359 | 0.0 | 0.0 | 0.00 | 0.00 | 0.00 | 91 | 1010.7 |
| 20260903023000 | 56 | 68 | 0.0 | 0.0 | 0.00 | 0.00 | 0.00 | 91 | 1010.7 |
| 20260903022256 | 56 | 68 | 0.0 | 0.0 | 0.00 | 0.00 | 0.00 | 91 | 1010.7 |
| 20260903021600 | 56 | 68 | 0.0 | 0.0 | 0.00 | 0.00 | 0.00 | 91 | 1010.8 |
| 20260903020853 | 56 | 68 | 0.0 | 0.0 | 0.00 | 0.00 | 0.00 | 91 | 1010.8 |
| 20260903020152 | 56 | 359 | 0.0 | 0.0 | 0.00 | 0.00 | 0.00 | 91 | 1010.8 |
| 20260903015516 | 56 | 68 | 0.0 | 0.0 | 0.00 | 0.00 | 0.00 | 91 | 1010.8 |
| 20260903014805 | 56 | 68 | 0.0 | 0.0 | 0.00 | 0.00 | 0.00 | 91 | 1010.8 |
| 20260903014053 | 56 | 68 | 0.0 | 0.0 | 0.00 | 0.00 | 0.00 | 91 | 1010.8 |
| 20260903013353 | 56 | 68 | 0.0 | 0.0 | 0.00 | 0.00 | 0.00 | 91 | 1010.8 |
| 20260903012653 | 56 | 68 | 0.0 | 0.0 | 0.00 | 0.00 | 0.00 | 91 | 1010.8 |
| 20260903011954 | 56 | 68 | 0.0 | 0.0 | 0.00 | 0.00 | 0.00 | 90 | 1010.8 |
| 20260903011302 | 56 | 68 | 0.0 | 0.0 | 0.00 | 0.00 | 0.00 | 90 | 1010.8 |
| 20260903010554 | 55 | 359 | 0.0 | 0.0 | 0.00 | 0.00 | 0.00 | 90 | 1010.9 |
| 20260903005854 | 55 | 68 | 0.0 | 0.0 | 0.00 | 0.00 | 0.00 | 90 | 1010.9 |
| 20260903005202 | 55 | 359 | 0.0 | 0.0 | 0.00 | 0.00 | 0.00 | 90 | 1010.9 |
| 20260903004454 | 55 | 68 | 0.0 | 0.0 | 0.00 | 0.00 | 0.00 | 90 | 1010.9 |
| 20260903003055 | 55 | 68 | 0.0 | 0.0 | 0.00 | 0.00 | 0.00 | 90 | 1010.9 |
| 20260903002355 | 54 | 68 | 0.0 | 0.0 | 0.00 | 0.00 | 0.00 | 90 | 1011.0 |
| 20260903001655 | 54 | 68 | 0.0 | 0.0 | 0.00 | 0.00 | 0.00 | 90 | 1010.9 |
| 20260903001008 | 54 | 359 | 0.0 | 0.0 | 0.00 | 0.00 | 0.00 | 90 | 1010.8 |
| 20260903000259 | 54 | 68 | 0.0 | 0.0 | 0.00 | 0.00 | 0.00 | 90 | 1010.9 |
| 20260902235600 | 54 | 68 | 0.0 | 0.0 | 0.00 | 0.00 | 0.00 | 90 | 1010.8 |
| 20260902234900 | 54 | 68 | 0.0 | 0.0 | 0.00 | 0.00 | 0.00 | 90 | 1010.9 |
| 20260902234241 | 54 | 68 | 0.0 | 0.0 | 0.00 | 0.00 | 0.00 | 90 | 1010.9 |
| 20260902233541 | 54 | 68 | 0.0 | 0.0 | 0.00 | 0.00 | 0.00 | 90 | 1010.9 |
| 20260902232756 | 54 | 68 | 0.0 | 0.0 | 0.00 | 0.00 | 0.00 | 89 | 1010.9 |
| 20260902232056 | 53 | 68 | 0.0 | 0.0 | 0.00 | 0.00 | 0.00 | 89 | 1010.8 |
| 20260902231356 | 53 | 68 | 0.0 | 0.0 | 0.00 | 0.00 | 0.00 | 89 | 1010.9 |
| 20260902230721 | 53 | 68 | 0.0 | 0.0 | 0.00 | 0.00 | 0.00 | 89 | 1010.8 |
| 20260902225957 | 53 | 68 | 0.0 | 0.0 | 0.00 | 0.00 | 0.00 | 89 | 1010.8 |
| 20260902225257 | 53 | 68 | 0.0 | 0.0 | 0.00 | 0.00 | 0.00 | 88 | 1010.8 |
| 20260902224642 | 53 | 68 | 0.0 | 0.0 | 0.00 | 0.00 | 0.00 | 88 | 1010.9 |
| 20260902223918 | 53 | 68 | 0.0 | 0.0 | 0.00 | 0.00 | 0.00 | 88 | 1011.1 |
| 20260902223234 | 54 | 68 | 0.0 | 0.0 | 0.00 | 0.00 | 0.00 | 88 | 1011.0 |
| 20260902222543 | 53 | 68 | 0.0 | 0.0 | 0.00 | 0.00 | 0.00 | 88 | 1010.9 |
| 20260902221806 | 53 | 359 | 0.0 | 0.0 | 0.00 | 0.00 | 0.00 | 88 | 1011.0 |
| 20260902221058 | 54 | 68 | 0.0 | 0.0 | 0.00 | 0.00 | 0.00 | 88 | 1011.0 |
| 20260902220444 | 54 | 68 | 0.0 | 0.0 | 0.00 | 0.00 | 0.00 | 87 | 1011.0 |
| 20260902215743 | 54 | 359 | 0.0 | 0.0 | 0.00 | 0.00 | 0.00 | 87 | 1011.1 |
| 20260902215011 | 54 | 68 | 0.0 | 0.0 | 0.00 | 0.00 | 0.00 | 87 | 1011.0 |
| 20260902214343 | 54 | 68 | 0.0 | 0.0 | 0.00 | 0.00 | 0.00 | 86 | 1010.9 |
| 20260902213615 | 54 | 68 | 0.0 | 0.0 | 0.00 | 0.00 | 0.00 | 86 | 1010.9 |
| 20260902212945 | 55 | 68 | 0.0 | 0.0 | 0.00 | 0.00 | 0.00 | 86 | 1010.9 |
| 20260902211545 | 55 | 68 | 0.0 | 0.0 | 0.00 | 0.00 | 0.00 | 86 | 1010.9 |
| 20260902210845 | 55 | 68 | 0.0 | 0.0 | 0.00 | 0.00 | 0.00 | 86 | 1011.2 |
| 20260902210112 | 55 | 68 | 0.0 | 0.0 | 0.00 | 0.00 | 0.00 | 86 | 1011.1 |
| 20260902205408 | 56 | 68 | 0.0 | 0.0 | 0.00 | 0.00 | 0.00 | 86 | 1011.0 |
| 20260902204740 | 56 | 68 | 0.0 | 0.0 | 0.00 | 0.00 | 0.00 | 86 | 1011.0 |
| 20260902204032 | 56 | 68 | 0.0 | 0.0 | 0.00 | 0.00 | 0.00 | 85 | 1011.1 |
| 20260902203333 | 56 | 359 | 0.0 | 0.0 | 0.00 | 0.00 | 0.00 | 85 | 1011.0 |
| 20260902202613 | 56 | 68 | 0.0 | 0.0 | 0.00 | 0.00 | 0.00 | 85 | 1011.0 |
| 20260902201946 | 56 | 359 | 0.0 | 0.0 | 0.00 | 0.00 | 0.00 | 84 | 1011.0 |
| 20260902201241 | 56 | 359 | 0.0 | 0.0 | 0.00 | 0.00 | 0.00 | 84 | 1010.9 |
| 20260902200518 | 56 | 359 | 0.0 | 0.0 | 0.00 | 0.00 | 0.00 | 84 | 1011.0 |
| 20260902195847 | 56 | 68 | 0.0 | 0.0 | 0.00 | 0.00 | 0.00 | 83 | 1011.0 |
| 20260902193046 | 56 | 68 | 0.0 | 0.0 | 0.00 | 0.00 | 0.00 | 82 | 1011.0 |
| 20260902192306 | 56 | 68 | 0.0 | 0.0 | 0.00 | 0.00 | 0.00 | 82 | 1011.1 |
| 20260902191647 | 57 | 68 | 0.0 | 0.0 | 0.00 | 0.00 | 0.00 | 82 | 1011.1 |
| 20260902190239 | 58 | 359 | 0.0 | 0.0 | 0.00 | 0.00 | 0.00 | 81 | 1011.3 |
| 20260902185519 | 58 | 359 | 0.0 | 0.0 | 0.00 | 0.00 | 0.00 | 80 | 1011.2 |
| 20260902184848 | 58 | 359 | 0.0 | 0.0 | 0.00 | 0.00 | 0.00 | 80 | 1011.0 |